Weather History for KLRU - May, 2014

Change the Weather History Date:

Sunday, May 25, 2014

  Actual Average Record
Temperature  
Mean Temperature 66 °F -  
Max Temperature 81 °F 87 °F 100 °F (2006)
Min Temperature 52 °F 58 °F 50 °F (2011)
Cooling Degree Days 2    
Growing Degree Days 16 (Base 50)    
Moisture  
Dew Point 29 °F    
Average Humidity 26    
Maximum Humidity 53    
Minimum Humidity 13    
Precipitation  
Precipitation 0.00 in - - ()
Sea Level Pressure  
Sea Level Pressure 30.02 in    
Wind  
Wind Speed 8 mph (NW)    
Max Wind Speed 20 mph    
Max Gust Speed 26 mph    
Visibility 10 miles    
Events      
Averages and records for this station are not official NWS values.
T = Trace of Precipitation, MM = Missing Value Source: NWS Daily Summary

Daily Weather History Graph

Daily Weather History Graph

Search for Another Location

Airport or City:

Trip Planner

Search our weather history database for the weather conditions in past years. The results will help you decide how hot, cold, wet, or windy it might be!

Date:

Astronomy

May. 25, 2014 Rise Set
Actual Time 6:04 AM MDT 8:05 PM MDT
Civil Twilight 5:36 AM MDT 8:33 PM MDT
Nautical Twilight 5:03 AM MDT 9:06 PM MDT
Astronomical Twilight 4:27 AM MDT 9:42 PM MDT
Moon 3:58 AM MDT (5/25) 5:18 PM MDT (5/25)
Length of Visible Light 14h 56m
Length of Day
14h 01m
Waning Crescent, 10% of the Moon is Illuminated
May 25
Waning Crescent
May 28
New
Jun 5
First Quarter
Jun 12
Full
Jun 19
Last Quarter

Hourly Weather History & Observations

Time (MDT) Temp. Dew Point Humidity Pressure Visibility Wind Dir Wind Speed Gust Speed Precip Events Conditions
12:15 AM 58.3 °F 19.8 °F 22% 30.02 in 10.0 mi NW 8.1 mph - N/A   Clear
12:35 AM 57.6 °F 19.6 °F 23% 30.02 in 10.0 mi NW 5.8 mph - N/A   Clear
12:55 AM 56.5 °F 19.6 °F 24% 30.02 in 10.0 mi NNW 6.9 mph - N/A   Clear
1:15 AM 56.3 °F 20.7 °F 25% 30.02 in 10.0 mi North 12.7 mph - N/A   Clear
1:35 AM 58.6 °F 21.6 °F 24% 30.02 in 10.0 mi NNW 8.1 mph - N/A   Clear
1:55 AM 58.1 °F 27.7 °F 31% 30.01 in 10.0 mi NNW 8.1 mph - N/A   Clear
2:15 AM 59.0 °F 32.4 °F 37% 30.01 in 10.0 mi NNW 8.1 mph - N/A   Clear
2:35 AM 59.0 °F 32.4 °F 37% 30.01 in 10.0 mi NNW 9.2 mph - N/A   Clear
2:55 AM 59.2 °F 33.8 °F 38% 30.01 in 10.0 mi North 9.2 mph - N/A   Clear
3:15 AM 58.5 °F 34.7 °F 41% 30.01 in 10.0 mi NNW 9.2 mph - N/A   Clear
3:35 AM 57.6 °F 35.2 °F 43% 30.01 in 10.0 mi NNW 8.1 mph - N/A   Clear
3:55 AM 57.6 °F 35.6 °F 44% 30.01 in 10.0 mi NNW 10.4 mph - N/A   Clear
4:15 AM 57.4 °F 35.2 °F 43% 30.02 in 10.0 mi NNW 10.4 mph - N/A   Clear
4:35 AM 57.2 °F 35.1 °F 43% 30.02 in 10.0 mi NNW 10.4 mph - N/A   Clear
4:55 AM 56.8 °F 35.1 °F 44% 30.02 in 10.0 mi NNW 9.2 mph - N/A   Clear
5:15 AM 56.7 °F 35.1 °F 44% 30.02 in 10.0 mi NW 6.9 mph - N/A   Clear
5:35 AM 55.6 °F 34.9 °F 46% 30.02 in 10.0 mi NW 6.9 mph - N/A   Clear
5:55 AM 52.3 °F 34.0 °F 50% 30.03 in 10.0 mi NNW 5.8 mph - N/A   Clear
6:15 AM 52.9 °F 34.7 °F 50% 30.04 in 10.0 mi Calm Calm - N/A   Clear
6:35 AM 52.0 °F 35.2 °F 53% 30.04 in 10.0 mi Calm Calm - N/A   Clear
6:55 AM 55.0 °F 35.1 °F 47% 30.04 in 10.0 mi Calm Calm - N/A   Clear
7:15 AM 59.2 °F 33.3 °F 38% 30.05 in 10.0 mi NNW 3.5 mph - N/A   Clear
7:35 AM 62.2 °F 32.0 °F 32% 30.05 in 10.0 mi NNW 4.6 mph - N/A   Clear
8:15 AM 65.1 °F 32.0 °F 29% 30.05 in 10.0 mi Calm Calm - N/A   Clear
8:55 AM 66.4 °F 33.3 °F 29% 30.07 in 10.0 mi East 5.8 mph - N/A   Clear
9:15 AM 66.4 °F 34.0 °F 30% 30.06 in 10.0 mi ESE 5.8 mph - N/A   Clear
9:35 AM 66.9 °F 34.5 °F 30% 30.06 in 10.0 mi ENE 5.8 mph - N/A   Clear
9:55 AM 68.4 °F 34.0 °F 28% 30.07 in 10.0 mi ENE 5.8 mph - N/A   Clear
10:15 AM 70.0 °F 33.1 °F 26% 30.06 in 10.0 mi ENE 5.8 mph - N/A   Clear
10:35 AM 71.2 °F 32.0 °F 24% 30.06 in 10.0 mi East 3.5 mph - N/A   Clear
10:55 AM 72.1 °F 28.6 °F 20% 30.06 in 10.0 mi NNE 6.9 mph - N/A   Clear
11:15 AM 73.2 °F 29.5 °F 20% 30.05 in 10.0 mi NE 6.9 mph - N/A   Clear
11:35 AM 74.5 °F 24.4 °F 16% 30.05 in 10.0 mi SE 5.8 mph - N/A   Clear
11:55 AM 73.9 °F 23.0 °F 15% 30.05 in 10.0 mi NW 6.9 mph - N/A   Clear
12:15 PM 75.6 °F 23.4 °F 14% 30.04 in 10.0 mi West 4.6 mph 10.4 mph N/A   Clear
12:35 PM 76.6 °F 24.1 °F 14% 30.04 in 10.0 mi SW 6.9 mph - N/A   Clear
12:55 PM 76.3 °F 23.4 °F 14% 30.03 in 10.0 mi WNW 5.8 mph - N/A   Clear
1:15 PM 78.3 °F 23.7 °F 13% 30.03 in 10.0 mi WSW 12.7 mph 23.0 mph N/A   Clear
1:35 PM 77.4 °F 23.7 °F 14% 30.02 in 10.0 mi South 6.9 mph - N/A   Scattered Clouds
1:55 PM 78.8 °F 23.9 °F 13% 30.02 in 10.0 mi West 19.6 mph 26.5 mph N/A   Clear
2:15 PM 78.4 °F 23.9 °F 13% 30.01 in 10.0 mi WNW 6.9 mph - N/A   Scattered Clouds
2:35 PM 79.2 °F 24.4 °F 13% 30.01 in 10.0 mi SW 9.2 mph 23.0 mph N/A   Scattered Clouds
2:55 PM 78.4 °F 24.8 °F 14% 30.00 in 10.0 mi WSW 11.5 mph 18.4 mph N/A   Scattered Clouds
3:15 PM 81.3 °F 25.2 °F 13% 29.99 in 10.0 mi SW 9.2 mph 18.4 mph N/A   Scattered Clouds
3:35 PM 80.4 °F 24.8 °F 13% 29.99 in 10.0 mi WSW 17.3 mph 23.0 mph N/A   Mostly Cloudy
3:55 PM 79.9 °F 25.0 °F 13% 29.99 in 10.0 mi WSW 16.1 mph 24.2 mph N/A   Mostly Cloudy
4:15 PM 78.1 °F 25.2 °F 14% 29.99 in 10.0 mi WSW 16.1 mph 20.7 mph N/A   Mostly Cloudy
4:35 PM 78.3 °F 25.3 °F 14% 29.99 in 10.0 mi SW 19.6 mph 25.3 mph N/A   Scattered Clouds
4:55 PM 79.0 °F 25.7 °F 14% 29.98 in 10.0 mi West 11.5 mph - N/A   Scattered Clouds
5:15 PM 79.9 °F 25.7 °F 14% 29.98 in 10.0 mi WNW 15.0 mph 21.9 mph N/A   Scattered Clouds
5:35 PM 79.5 °F 25.7 °F 14% 29.98 in 10.0 mi SW 9.2 mph 25.3 mph N/A   Clear
5:55 PM 79.9 °F 25.5 °F 14% 29.98 in 10.0 mi SW 12.7 mph 20.7 mph N/A   Scattered Clouds
6:15 PM 79.2 °F 25.5 °F 14% 29.97 in 10.0 mi WSW 11.5 mph - N/A   Scattered Clouds
6:35 PM 77.9 °F 25.7 °F 15% 29.98 in 10.0 mi West 13.8 mph - N/A   Clear
6:55 PM 76.5 °F 25.7 °F 15% 29.98 in 10.0 mi West 13.8 mph 18.4 mph N/A   Scattered Clouds
7:15 PM 77.0 °F 25.7 °F 15% 29.99 in 10.0 mi WSW 11.5 mph 16.1 mph N/A   Scattered Clouds
7:35 PM 76.3 °F 25.9 °F 15% 29.99 in 10.0 mi WSW 13.8 mph 19.6 mph N/A   Clear
7:55 PM 74.7 °F 27.0 °F 17% 30.00 in 10.0 mi West 12.7 mph - N/A   Clear
8:15 PM 73.4 °F 27.1 °F 18% 30.00 in 10.0 mi West 6.9 mph - N/A   Clear
8:35 PM 72.5 °F 27.5 °F 19% 30.02 in 10.0 mi West 8.1 mph - N/A   Clear
9:15 PM 71.1 °F 28.4 °F 20% 30.03 in 10.0 mi WNW 6.9 mph - N/A   Clear
9:35 PM 69.4 °F 34.7 °F 28% 30.05 in 10.0 mi North 8.1 mph - N/A   Clear
9:55 PM 68.5 °F 35.6 °F 30% 30.05 in 10.0 mi NNE 10.4 mph - N/A   Clear
10:15 PM 67.5 °F 35.8 °F 31% 30.05 in 10.0 mi NNE 9.2 mph - N/A   Clear
10:35 PM 66.4 °F 35.6 °F 32% 30.06 in 10.0 mi NNE 8.1 mph - N/A   Clear
10:55 PM 65.3 °F 35.6 °F 33% 30.06 in 10.0 mi NE 4.6 mph - N/A   Clear
11:15 PM 64.9 °F 36.1 °F 34% 30.06 in 10.0 mi NE 5.8 mph - N/A   Clear
11:35 PM 63.5 °F 35.8 °F 36% 30.05 in 10.0 mi NE 5.8 mph - N/A   Clear
11:55 PM 61.9 °F 35.8 °F 38% 30.06 in 10.0 mi NNE 6.9 mph - N/A   Clear